Location: Austin
(30.3000°N, 97.7500°W)
Time: 02:54:30
(UTC-05:00)

Cosmos 2315 Rocket - Pass Details

Date: 11 June 2024
Orbit: 966 x 1001 km, 82.9° (Epoch: 12 October)

Event Time Altitude Azimuth Distance (km) Brightness Sun altitude
Rises 23:41:23 0° 352° (N) 3,720 8.0 -30.4°
Reaches altitude 10° 23:43:55 10° 351° (N) 2,771 7.2 -30.7°
Enters shadow 23:50:06 77° 286° (WNW) 1,029 4.0 -31.3°
